Lebanon, NH

6:26 PM EDT on April 21, 2018 (GMT -0400)
Lebanon Municipal

Weather History for KLEB - December, 2012

Change the Weather History Date:

Saturday, December 1, 2012

  Actual Average Record
Temperature  
Mean Temperature 24 °F -  
Max Temperature 28 °F 38 °F 65 °F (1934)
Min Temperature 19 °F 23 °F -27 °F (1997)
Degree Days  
Heating Degree Days 42    
Moisture  
Dew Point 17 °F    
Average Humidity 77    
Maximum Humidity 93    
Minimum Humidity 57    
Precipitation  
Precipitation 0.02 in - - ()
Sea Level Pressure  
Sea Level Pressure 30.58 in    
Wind  
Wind Speed 2 mph (NNW)    
Max Wind Speed 5 mph    
Max Gust Speed -    
Visibility 6 miles    
Events Snow    
Averages and records for this station are not official NWS values.
T = Trace of Precipitation, MM = Missing Value Source: NWS Daily Summary

Daily Weather History Graph

Daily Weather History Graph

Search for Another Location

Airport or City:

Astronomy

Dec. 01, 2012 Rise Set
Actual Time 7:03 AM EST 4:13 PM EST
Civil Twilight 6:31 AM EST 4:45 PM EST
Nautical Twilight 5:55 AM EST 5:21 PM EST
Astronomical Twilight 5:20 AM EST 5:55 PM EST
Moon 7:02 PM EST (12/1) 9:13 AM EST (12/1)
Length of Visible Light 10h 14m
Length of Day
9h 10m
Waning Gibbous, 92% of the Moon is Illuminated
Dec 1
Waning Gibbous
Dec 6
Last Quarter
Dec 13
New
Dec 20
First Quarter
Dec 28
Full

Hourly Weather History & Observations

Time (EST) Temp. Windchill Dew Point Humidity Pressure Visibility Wind Dir Wind Speed Gust Speed Precip Events Conditions
12:53 AM 19.9 °F 13.4 °F 7.0 °F 57% 30.61 in 10.0 mi North 4.6 mph - N/A   Overcast
1:53 AM 19.9 °F - 7.0 °F 57% 30.60 in 10.0 mi Calm Calm - N/A   Overcast
2:53 AM 19.9 °F - 8.1 °F 60% 30.60 in 10.0 mi Calm Calm - N/A   Overcast
3:53 AM 19.9 °F 13.4 °F 8.1 °F 60% 30.60 in 10.0 mi North 4.6 mph - N/A   Overcast
4:53 AM 19.9 °F 14.9 °F 9.0 °F 62% 30.61 in 10.0 mi North 3.5 mph - N/A   Overcast
5:53 AM 19.9 °F - 10.9 °F 68% 30.62 in 4.0 mi Calm Calm - 0.00 in Snow Light Snow
6:53 AM 19.9 °F - 12.0 °F 71% 30.62 in 3.0 mi Calm Calm - 0.01 in Snow Light Snow
7:53 AM 19.9 °F 14.9 °F 14.0 °F 78% 30.65 in 3.0 mi North 3.5 mph - 0.00 in Snow Light Snow
8:53 AM 21.0 °F 16.2 °F 15.1 °F 78% 30.63 in 3.0 mi South 3.5 mph - 0.00 in Snow Light Snow
9:14 AM 21.2 °F 16.4 °F 15.8 °F 80% 30.61 in 2.5 mi WNW 3.5 mph - 0.00 in Snow Light Snow
9:21 AM 21.2 °F - 15.8 °F 80% 30.60 in 3.0 mi Calm Calm - 0.00 in Snow Light Snow
9:53 AM 21.0 °F - 16.0 °F 81% 30.65 in 3.0 mi Calm Calm - 0.01 in Snow Light Snow
11:53 AM 24.1 °F - 18.0 °F 77% 30.60 in 4.0 mi Calm Calm - 0.00 in Snow Light Snow
12:53 PM 25.0 °F - 19.0 °F 78% 30.58 in 4.0 mi Calm Calm - 0.00 in Snow Light Snow
1:53 PM 26.1 °F - 19.9 °F 78% 30.57 in 3.0 mi Calm Calm - 0.00 in Snow Light Snow
2:53 PM 26.1 °F - 21.0 °F 81% 30.57 in 7.0 mi Calm Calm - 0.00 in Snow Light Snow
3:53 PM 26.1 °F - 21.0 °F 81% 30.58 in 9.0 mi Calm Calm - 0.00 in Snow Light Snow
6:15 PM 26.6 °F - 21.2 °F 80% 30.53 in 10.0 mi Calm Calm - N/A   Overcast
6:53 PM 27.0 °F - 21.9 °F 81% 30.56 in 10.0 mi Calm Calm - N/A   Overcast
7:53 PM 27.0 °F - 21.9 °F 81% 30.57 in 10.0 mi Calm Calm - N/A   Overcast
8:42 PM 26.6 °F - 23.0 °F 86% 30.51 in 9.0 mi Calm Calm - N/A   Overcast
8:53 PM 27.0 °F - 23.0 °F 85% 30.55 in 9.0 mi Calm Calm - N/A   Overcast
9:53 PM 27.0 °F - 24.1 °F 89% 30.53 in 7.0 mi Calm Calm - N/A   Overcast
10:53 PM 28.0 °F - 25.0 °F 88% 30.53 in 3.0 mi Calm Calm - N/A   Overcast
11:25 PM 28.4 °F - 26.6 °F 93% 30.48 in 4.0 mi Calm Calm - N/A   Overcast
11:53 PM 28.0 °F - 26.1 °F 92% 30.51 in 5.0 mi Calm Calm - N/A   Overcast